Flag for U.S.A. Weather past 2 weeks in New City, New York, U.S.A.

Now
36 °F

Light rain. Fog.


Feels Like: 28 °F
Forecast: 18 / 35 °F
Wind: 10 mph from Northwest

Location: Westchester County Airport

Current Time: Mar 5, 2015 at 2:34:43 AM

Latest Report: Mar 5, 2015 at 1:56 AM


Visibility: 2 mi

Pressure: 29.89 "Hg

Humidity: 92%

Dew point: 34 °F

Location of New CityLocation

Historic Weather in New City — Graph

°F

New City temperature yesterday

Maximum temperature yesterday: 43 °F (at 2:56 PM)
Minimum temperature yesterday: 34 °F (at 12:56 AM)
Average temperature yesterday: 38 °F

Past Weeks' High & Low Weather Summary

 TemperatureHumidityPressure
High43 °F (Mar 4, 2:56 PM)96% (Mar 1, 8:56 PM)30.81 "Hg (Mar 1, 8:56 PM)
Low-4 °F (Feb 24, 5:56 AM)31% (Feb 23, 1:56 PM)29.69 "Hg (Feb 19, 1:56 AM)
Average21 °F62%30.17 "Hg
* Reported Feb 18 12:56 AM — Mar 5 12:56 AM, New City, Weather by CustomWeather, © 2015

Note: Actual official high and low records may vary slightly from our data, if they occured in-between our weather recording intervals... More about our weather records

Advertising

New City weather history for previous 24 hours

 ConditionsComfort  
Time TempWeatherWind HumidityBarometerVisibility
12:56 AM
Thu, Mar 5
37 °FLight rain. Fog.7 mph93%29.88 "Hg2 mi
11:56 PM
Wed, Mar 4
38 °FLight rain. Fog.7 mph93%29.89 "Hg2 mi
10:56 PM39 °FRain. Fog.8 mph93%29.90 "Hg2 mi
9:56 PM40 °FLight rain. Fog.No wind93%29.89 "Hg1 mi
8:56 PM40 °FLight rain. Fog.5 mph93%29.88 "Hg2 mi
8:03 PM39 °FFog.No wind93%29.85 "Hg2 mi
7:56 PM39 °FFog.3 mph93%29.86 "Hg4 mi
6:56 PM37 °FLight rain. Fog.No wind93%29.88 "Hg4 mi
5:56 PM39 °FLight rain. Passing clouds.No wind86%29.87 "Hg5 mi
4:56 PM40 °FPartly sunny.3 mph83%29.85 "Hg6 mi
3:56 PM41 °FPartly sunny.No wind80%29.87 "Hg7 mi
2:56 PM43 °FBroken clouds.7 mph76%29.83 "Hg7 mi
1:56 PM42 °FFog.No wind85%29.82 "Hg4 mi
12:56 PM40 °FDrizzle. Fog.3 mph89%29.83 "Hg2 mi
11:56 AM41 °FLight rain. Broken clouds.6 mph82%29.85 "Hg4 mi
10:56 AM40 °FFog.6 mph86%29.87 "Hg4 mi
9:56 AM38 °FFog.6 mph93%29.85 "Hg2 mi
8:56 AM37 °FLight rain. Fog.No wind93%29.84 "Hg2 mi
7:56 AM35 °FLight rain. Fog.No wind96%29.82 "Hg2 mi
6:56 AM34 °FFog.6 mph92%29.79 "Hg2 mi
5:56 AM34 °FLight rain. Fog.3 mph92%29.79 "Hg3 mi
4:56 AM34 °FLight rain. Fog.7 mph92%29.78 "Hg5 mi
3:56 AM34 °FFog.No wind92%29.73 "Hg5 mi
2:56 AM34 °FFog.No wind92%29.75 "Hg6 mi
Weather by CustomWeather, © 2015

See weather overviewHow to use our weather pages